Flag for Russia Weather past 2 weeks in Bryansk, Russia

Now
55 °F

Clear.


Feels Like: 55 °F
Forecast: 50 / 77 °F
Wind: No wind

Location: Brjansk

Current Time: Aug 3, 2015 at 2:05:51 AM

Latest Report: Aug 3, 2015 at 1:00 AM


Visibility: 10 mi

Pressure: 30.30 "Hg

Humidity: 77%

Dew point: 48 °F

Location of BryanskLocation

Historic Weather in Bryansk — Graph

°F

Bryansk temperature yesterday

Maximum temperature yesterday: 72 °F (at 1:30 PM)
Minimum temperature yesterday: 57 °F (at 7:00 AM)
Average temperature yesterday: 66 °F

Past Weeks' High & Low Weather Summary

 TemperatureHumidityPressure
High93 °F (Jul 26, 3:00 PM)100% (Jul 20, 7:30 AM)30.30 "Hg (Jul 20, 7:30 AM)
Low52 °F (Aug 3, 12:00 AM)36% (Jul 26, 3:00 PM)29.56 "Hg (Jul 20, 9:30 AM)
Average69 °F68%29.87 "Hg
* Reported Jul 19 9:00 AM — Aug 3 1:00 AM, Bryansk, Weather by CustomWeather, © 2015

Note: Actual official high and low records may vary slightly from our data, if they occured in-between our weather recording intervals... More about our weather records

Advertising

Bryansk weather history for previous 24 hours

 ConditionsComfort  
Time TempWeatherWind HumidityBarometerVisibility
1:00 AM
Mon, Aug 3
55 °FClear.No wind77%30.30 "Hg10 mi
12:00 AM52 °FClear.1 mph88%30.27 "Hg10 mi
11:00 PM
Sun, Aug 2
57 °FClear.No wind72%30.27 "Hg10 mi
10:30 PM57 °FClear.No wind72%30.27 "Hg10 mi
10:00 PM59 °FClear.1 mph72%30.27 "Hg10 mi
9:30 PM59 °FSunny.1 mph72%30.27 "Hg10 mi
9:00 PM63 °FSunny.3 mph64%30.27 "Hg10 mi
8:30 PM64 °FSunny.1 mph60%30.27 "Hg10 mi
8:00 PM66 °FSunny.3 mph52%30.27 "Hg10 mi
7:30 PM68 °FSunny.3 mph49%30.27 "Hg10 mi
7:00 PM68 °FSunny.6 mph49%30.27 "Hg10 mi
6:30 PM70 °FSunny.6 mph46%30.27 "Hg10 mi
6:00 PM70 °FPassing clouds.6 mph46%30.27 "HgN/A
5:30 PM70 °FPassing clouds.6 mph46%30.27 "HgN/A
5:00 PM68 °FSunny.6 mph49%30.27 "Hg10 mi
4:30 PM72 °FPassing clouds.6 mph47%30.27 "HgN/A
4:00 PM72 °FPartly sunny.8 mph44%30.27 "HgN/A
3:30 PM72 °FPartly sunny.6 mph44%30.27 "HgN/A
3:00 PM68 °FPartly sunny.8 mph49%30.27 "HgN/A
2:30 PM68 °FPartly sunny.6 mph49%30.27 "HgN/A
2:00 PM72 °FPartly sunny.8 mph44%30.27 "HgN/A
1:30 PM72 °FPartly sunny.8 mph44%30.27 "HgN/A
1:00 PM70 °FPartly sunny.8 mph46%30.27 "HgN/A
12:30 PM68 °FPartly sunny.8 mph53%30.27 "HgN/A
12:00 PM68 °FPartly sunny.8 mph49%30.27 "HgN/A
11:30 AM68 °FPartly sunny.8 mph53%30.27 "HgN/A
11:00 AM64 °FPartly sunny.8 mph56%30.27 "HgN/A
10:30 AM64 °FPartly sunny.10 mph60%30.27 "HgN/A
10:00 AM66 °FPartly sunny.8 mph64%30.27 "HgN/A
9:30 AM66 °FScattered clouds.6 mph64%30.27 "HgN/A
9:00 AM64 °FPassing clouds.6 mph73%30.27 "HgN/A
8:30 AM63 °FPassing clouds.6 mph77%30.24 "HgN/A
8:00 AM61 °FPassing clouds.6 mph77%30.24 "HgN/A
7:00 AM57 °FPartly sunny.3 mph88%30.24 "HgN/A
Weather by CustomWeather, © 2015

See weather overviewHow to use our weather pages